This is the latest recevied weather packets stored in our database for station/object WX4LTG. If no packets are shown the sender has not sent any weather packets the latest 10 day(s).
| Time | Temp. | Humidity | Pressure | Rain* | Wind** | Luminosity | Snow |
|---|---|---|---|---|---|---|---|
| 1777446029 | 19.44° C | 38% | 1014.4 hPa | 0 mm | - | 0 W/m² | - |
| 1777445725 | 20° C | 30% | 1014.4 hPa | 0 mm | - | 0 W/m² | - |
| 1777445421 | 20° C | 27% | 1014.5 hPa | 0 mm | - | 0 W/m² | - |
| 1777445118 | 20.56° C | 28% | 1014.3 hPa | 0 mm | - | 0 W/m² | - |
| 1777444814 | 20.56° C | 27% | 1014.4 hPa | 0 mm | - | 0 W/m² | - |
| 1777444509 | 20° C | 27% | 1014.5 hPa | 0 mm | - | 0 W/m² | - |
| 1777444207 | 18.89° C | 30% | 1014.2 hPa | 0 mm | - | 0 W/m² | - |
| 1777443903 | 19.44° C | 29% | 1014.7 hPa | 0 mm | - | 0 W/m² | - |
| 1777443599 | 20.56° C | 28% | 1014.4 hPa | 0 mm | - | 0 W/m² | - |
| 1777443294 | 20.56° C | 27% | 1014.5 hPa | 0 mm | - | 0 W/m² | - |
| 1777442992 | 21.11° C | 25% | 1014.4 hPa | 0 mm | - | 0 W/m² | - |
| 1777442689 | 21.11° C | 25% | 1014.3 hPa | 0 mm | - | 0 W/m² | - |
| 1777442384 | 21.67° C | 24% | 1014.2 hPa | 0 mm | - | 0 W/m² | - |
| 1777442081 | 21.67° C | 23% | 1014.1 hPa | 0 mm | - | 0 W/m² | - |
| 1777441776 | 21.67° C | 23% | 1014.3 hPa | 0 mm | - | 0 W/m² | - |
| 1777441472 | 21.67° C | 23% | 1014.1 hPa | 0 mm | - | 0 W/m² | - |
| 1777441166 | 21.11° C | 23% | 1014.2 hPa | 0 mm | - | 0 W/m² | - |
| 1777440862 | 21.67° C | 23% | 1014.3 hPa | 0 mm | - | 0 W/m² | - |
| 1777440558 | 22.22° C | 23% | 1014.2 hPa | 0 mm | - | 0 W/m² | - |
| 1777440255 | 21.67° C | 23% | 1014.2 hPa | 0 mm | - | 0 W/m² | - |
| 1777439951 | 22.22° C | 23% | 1013.9 hPa | 0 mm | - | 0 W/m² | - |
| 1777439647 | 22.22° C | 22% | 1014.2 hPa | 0 mm | - | 0 W/m² | - |
| 1777439343 | 22.22° C | 21% | 1014.1 hPa | 0 mm | - | 0 W/m² | - |
| 1777439038 | 22.78° C | 21% | 1014.3 hPa | 0 mm | - | 0 W/m² | - |
| 1777438736 | 22.78° C | 21% | 1014.2 hPa | 0 mm | - | 0 W/m² | - |
* Rain latest hour (hover to see other rain measurements)
** Current wind speed in m/s (hover to see current wind gust speed)